Lid_Strength_Index
9 9 9 10 10 10 10 11 11 10 10 10 10 10 10 10 10 10 10 10 10 9
11 10 11 11 11 11 11 11 11 11 11 11 11 11 11 11 11 11 11 11 11 11
11 12 12 12 12 12 12 12 12 13 13 13 13 12 12 12 11 11 12 12 13 12
13 13 12 13 13 13 13 13 13 14 14 14 13 13 13 13 12 13 14 13 13 13
13 13 13 14 14 14 14 14 14 14 14 14 14 13 14 14 13 14 14 14 14 14
13 14 15 15 15 15 15 15 14 14 14 14 14 14 14 14 14 14 14 14 14 14
15 15 15 16 16 16 16 15 15 15 15 15 15 15 14 14 15 14 14 13 13 14
15 16 16 17 17 16 16 16 16 16 16 16 16 15 15 15 15 14 14 13 13 13
16 17 17 17 17 16 17 17 17 17 17 17 16 14 13 13 14 14 14 14 14 13
17 18 17 17 17 17 17 17 18 18 18 18 17 14 13 13 14 14 14 14 14 13
18 18 18 18 18 18 18 19 19 18 18 18 17 14 13 12 14 14 13 13 13 13
17 19 19 20 20 19 20 20 20 18 20 21 19 15 13 13 15 14 14 13 13 13
18 20 20 20 20 20 21 20 19 20 20 21 23 16 14 14 15 19 14 12 11 11
20 21 21 21 21 23 24 23 25 23 23 23 21 19 14 13 14 14 13 12 12 11